| time (UTC) | temp C | wind direction | speed KPH | gust KPH | rain 1hr cm | rain 24hr cm | rain mn cm | humidity % | barometer mb |
| 20260510143038 | 10 | 280 | 4.8 | 24.1 | 0.00 | 0.00 | 0.00 | 38 | 1016.6 |
| 20260510141537 | 10 | 297 | 8.0 | 14.5 | 0.00 | 0.00 | 0.00 | 38 | 1016.4 |
| 20260510140054 | 10 | 329 | 4.8 | 14.5 | 0.00 | 0.00 | 0.00 | 41 | 1016.1 |
| 20260510134544 | 9 | 329 | 6.4 | 16.1 | 0.00 | 0.00 | 0.00 | 43 | 1016.0 |
| 20260510133044 | 9 | 334 | 3.2 | 14.5 | 0.00 | 0.00 | 0.00 | 47 | 1015.9 |
| 20260510131538 | 8 | 316 | 4.8 | 12.9 | 0.00 | 0.00 | 0.00 | 48 | 1015.7 |
| 20260510130048 | 8 | 304 | 0.0 | 9.7 | 0.00 | 0.00 | 0.00 | 54 | 1015.5 |
| 20260510124555 | 8 | 311 | 3.2 | 11.3 | 0.00 | 0.00 | 0.00 | 61 | 1015.7 |
| 20260510123046 | 7 | 314 | 3.2 | 8.0 | 0.00 | 0.00 | 0.00 | 64 | 1015.6 |
| 20260510121543 | 6 | 335 | 1.6 | 9.7 | 0.00 | 0.00 | 0.00 | 70 | 1015.5 |
| 20260510120043 | 5 | 0 | 4.8 | 9.7 | 0.00 | 0.00 | 0.00 | 78 | 1015.4 |
| 20260510114542 | 5 | 38 | 1.6 | 9.7 | 0.00 | 0.00 | 0.00 | 86 | 1015.2 |
| 20260510113038 | 3 | 0 | 0.0 | 0.0 | 0.00 | 0.00 | 0.00 | 89 | 1014.9 |
| 20260510111537 | 2 | 0 | 0.0 | 0.0 | 0.00 | 0.00 | 0.00 | 90 | 1014.6 |
| 20260510110045 | 1 | 0 | 0.0 | 0.0 | 0.00 | 0.00 | 0.00 | 89 | 1014.4 |
| 20260510104544 | 1 | 0 | 0.0 | 0.0 | 0.00 | 0.00 | 0.00 | 89 | 1014.2 |
| 20260510103048 | 1 | 0 | 0.0 | 0.0 | 0.00 | 0.00 | 0.00 | 88 | 1014.2 |
| 20260510101540 | 1 | 0 | 0.0 | 0.0 | 0.00 | 0.00 | 0.00 | 87 | 1013.9 |
| 20260510100039 | 1 | 0 | 0.0 | 0.0 | 0.00 | 0.00 | 0.00 | 87 | 1013.6 |
| 20260510094546 | 1 | 0 | 0.0 | 0.0 | 0.00 | 0.00 | 0.00 | 86 | 1013.4 |
| 20260510093039 | 1 | 0 | 0.0 | 0.0 | 0.00 | 0.00 | 0.00 | 86 | 1013.2 |
| 20260510091543 | 2 | 0 | 0.0 | 0.0 | 0.00 | 0.00 | 0.00 | 85 | 1013.0 |
| 20260510090045 | 2 | 0 | 0.0 | 0.0 | 0.00 | 0.00 | 0.00 | 83 | 1012.7 |
| 20260510084539 | 2 | 0 | 0.0 | 0.0 | 0.00 | 0.00 | 0.00 | 83 | 1012.4 |
| 20260510083037 | 2 | 0 | 0.0 | 0.0 | 0.00 | 0.00 | 0.00 | 82 | 1012.0 |
| 20260510081543 | 3 | 0 | 0.0 | 0.0 | 0.00 | 0.00 | 0.00 | 80 | 1011.8 |
| 20260510080040 | 3 | 0 | 0.0 | 0.0 | 0.00 | 0.00 | 0.00 | 77 | 1011.6 |
| 20260510074543 | 3 | 0 | 0.0 | 0.0 | 0.00 | 0.00 | 0.00 | 77 | 1011.3 |
| 20260510073040 | 4 | 0 | 0.0 | 0.0 | 0.00 | 0.00 | 0.00 | 75 | 1011.2 |
| 20260510071538 | 5 | 0 | 0.0 | 0.0 | 0.00 | 0.00 | 0.00 | 71 | 1011.2 |
| 20260510070052 | 5 | 0 | 0.0 | 1.6 | 0.00 | 0.00 | 0.00 | 69 | 1011.1 |
| 20260510064538 | 6 | 0 | 0.0 | 6.4 | 0.00 | 0.00 | 0.00 | 68 | 1010.9 |
| 20260510063045 | 6 | 0 | 0.0 | 6.4 | 0.00 | 0.00 | 0.00 | 67 | 1010.7 |
| 20260510061550 | 6 | 0 | 1.6 | 14.5 | 0.00 | 0.00 | 0.00 | 66 | 1010.7 |
| 20260510060042 | 7 | 25 | 1.6 | 12.9 | 0.00 | 0.00 | 0.00 | 66 | 1010.5 |
| 20260510054551 | 7 | 360 | 3.2 | 16.1 | 0.00 | 0.00 | 0.00 | 65 | 1010.3 |
| 20260510053038 | 8 | 0 | 4.8 | 19.3 | 0.00 | 0.00 | 0.00 | 62 | 1010.0 |
| 20260510051543 | 8 | 106 | 4.8 | 17.7 | 0.00 | 0.00 | 0.00 | 64 | 1009.9 |
| 20260510050052 | 8 | 34 | 0.0 | 4.8 | 0.00 | 0.00 | 0.00 | 67 | 1009.5 |
| 20260510044547 | 9 | 0 | 0.0 | 6.4 | 0.00 | 0.00 | 0.00 | 63 | 1009.1 |
| 20260510043040 | 10 | 0 | 1.6 | 12.9 | 0.00 | 0.00 | 0.00 | 62 | 1008.9 |
| 20260510041553 | 11 | 0 | 3.2 | 9.7 | 0.00 | 0.00 | 0.00 | 59 | 1008.7 |
| 20260510040040 | 11 | 336 | 6.4 | 16.1 | 0.00 | 0.00 | 0.00 | 50 | 1008.3 |
| 20260510034542 | 11 | 344 | 0.0 | 14.5 | 0.00 | 0.00 | 0.00 | 52 | 1008.1 |
| 20260510033051 | 11 | 0 | 3.2 | 9.7 | 0.00 | 0.00 | 0.00 | 51 | 1007.8 |
| 20260510031552 | 11 | 336 | 4.8 | 16.1 | 0.00 | 0.00 | 0.00 | 53 | 1007.8 |
| 20260510030045 | 11 | 0 | 1.6 | 12.9 | 0.00 | 0.00 | 0.00 | 63 | 1007.5 |
| 20260510024601 | 11 | 0 | 0.0 | 0.0 | 0.00 | 0.00 | 0.00 | 62 | 1007.4 |
| 20260510023040 | 12 | 0 | 1.6 | 14.5 | 0.00 | 0.00 | 0.00 | 58 | 1007.0 |
| 20260510021538 | 13 | 0 | 4.8 | 14.5 | 0.00 | 0.00 | 0.00 | 54 | 1006.5 |
| 20260510020046 | 13 | 30 | 3.2 | 16.1 | 0.00 | 0.00 | 0.00 | 51 | 1006.2 |
| 20260510014541 | 13 | 36 | 3.2 | 17.7 | 0.00 | 0.00 | 0.00 | 55 | 1005.3 |
| 20260510013049 | 13 | 0 | 0.0 | 8.0 | 0.00 | 0.00 | 0.00 | 64 | 1004.7 |
| 20260510011546 | 14 | 0 | 0.0 | 0.0 | 0.00 | 0.00 | 0.00 | 51 | 1004.5 |
| 20260510010046 | 15 | 0 | 0.0 | 0.0 | 0.00 | 0.00 | 0.00 | 47 | 1004.2 |
| 20260510004545 | 16 | 0 | 0.0 | 0.0 | 0.00 | 0.00 | 0.00 | 44 | 1004.0 |
| 20260510003048 | 16 | 0 | 0.0 | 8.0 | 0.00 | 0.00 | 0.00 | 42 | 1003.8 |
| 20260510001544 | 17 | 290 | 3.2 | 17.7 | 0.00 | 0.00 | 0.00 | 41 | 1003.7 |
| 20260510000045 | 17 | 0 | 1.6 | 19.3 | 0.00 | 0.00 | 0.00 | 39 | 1003.5 |
| 20260509234538 | 18 | 285 | 9.7 | 22.5 | 0.00 | 0.00 | 0.00 | 36 | 1003.3 |
| 20260509233053 | 18 | 302 | 11.3 | 22.5 | 0.00 | 0.00 | 0.00 | 36 | 1003.0 |
| 20260509231555 | 18 | 277 | 11.3 | 24.1 | 0.00 | 0.00 | 0.00 | 35 | 1002.8 |
| 20260509230043 | 18 | 268 | 17.7 | 40.2 | 0.00 | 0.00 | 0.00 | 34 | 1002.5 |
| 20260509224544 | 19 | 288 | 14.5 | 25.7 | 0.00 | 0.00 | 0.00 | 33 | 1002.2 |
| 20260509223046 | 19 | 282 | 16.1 | 29.0 | 0.00 | 0.00 | 0.00 | 35 | 1001.9 |
| 20260509221543 | 20 | 278 | 12.9 | 27.4 | 0.00 | 0.00 | 0.00 | 36 | 1001.7 |
| 20260509220041 | 20 | 298 | 17.7 | 43.5 | 0.00 | 0.00 | 0.00 | 33 | 1001.3 |
| 20260509214537 | 20 | 284 | 19.3 | 35.4 | 0.00 | 0.00 | 0.00 | 34 | 1001.2 |
| 20260509213046 | 20 | 277 | 16.1 | 38.6 | 0.00 | 0.00 | 0.00 | 36 | 1001.0 |
| 20260509211554 | 19 | 287 | 14.5 | 27.4 | 0.00 | 0.00 | 0.00 | 41 | 1001.1 |
| 20260509210053 | 18 | 245 | 3.2 | 12.9 | 0.00 | 0.00 | 0.00 | 58 | 1001.2 |
| 20260509204540 | 18 | 263 | 1.6 | 16.1 | 0.00 | 0.00 | 0.00 | 61 | 1001.5 |
| 20260509203039 | 17 | 261 | 6.4 | 16.1 | 0.00 | 0.00 | 0.00 | 65 | 1001.8 |
| 20260509201546 | 16 | 0 | 3.2 | 14.5 | 0.00 | 0.00 | 0.00 | 73 | 1001.8 |
| 20260509200049 | 15 | 250 | 4.8 | 9.7 | 0.00 | 0.00 | 0.00 | 78 | 1002.0 |
| 20260509194546 | 13 | 0 | 1.6 | 9.7 | 0.00 | 0.00 | 0.00 | 84 | 1002.1 |
| 20260509193044 | 12 | 0 | 3.2 | 19.3 | 0.00 | 0.00 | 0.00 | 77 | 1002.9 |
| 20260509191540 | 13 | 286 | 16.1 | 49.9 | 0.00 | 0.00 | 0.00 | 69 | 1003.1 |
| 20260509190042 | 16 | 194 | 14.5 | 37.0 | 0.00 | 0.00 | 0.00 | 62 | 1001.1 |
| 20260509184543 | 17 | 184 | 12.9 | 25.7 | 0.00 | 0.00 | 0.00 | 58 | 1001.1 |
| 20260509183048 | 17 | 230 | 11.3 | 35.4 | 0.00 | 0.00 | 0.00 | 59 | 1001.1 |
| 20260509181546 | 17 | 190 | 14.5 | 33.8 | 0.00 | 0.00 | 0.00 | 58 | 1001.1 |
| 20260509180044 | 18 | 169 | 12.9 | 38.6 | 0.00 | 0.00 | 0.00 | 59 | 1001.1 |
| 20260509174546 | 17 | 215 | 12.9 | 35.4 | 0.00 | 0.00 | 0.00 | 60 | 1001.3 |
| 20260509173105 | 17 | 163 | 12.9 | 29.0 | 0.00 | 0.00 | 0.00 | 62 | 1001.4 |
| 20260509171548 | 16 | 209 | 12.9 | 30.6 | 0.00 | 0.00 | 0.00 | 66 | 1001.7 |
| 20260509170046 | 16 | 175 | 11.3 | 24.1 | 0.00 | 0.00 | 0.00 | 66 | 1001.7 |
| 20260509164544 | 16 | 181 | 9.7 | 27.4 | 0.00 | 0.00 | 0.00 | 66 | 1002.3 |
| 20260509163045 | 17 | 213 | 8.0 | 27.4 | 0.00 | 0.00 | 0.00 | 65 | 1002.0 |
| 20260509161542 | 16 | 186 | 11.3 | 32.2 | 0.00 | 0.00 | 0.00 | 68 | 1002.4 |
| 20260509160038 | 15 | 188 | 11.3 | 24.1 | 0.00 | 0.00 | 0.00 | 69 | 1002.7 |
| 20260509154538 | 15 | 169 | 6.4 | 22.5 | 0.00 | 0.00 | 0.00 | 73 | 1002.7 |
| 20260509153045 | 15 | 179 | 3.2 | 17.7 | 0.00 | 0.00 | 0.00 | 75 | 1003.0 |
| 20260509151555 | 13 | 183 | 3.2 | 14.5 | 0.00 | 0.00 | 0.00 | 81 | 1003.3 |
| 20260509150049 | 12 | 205 | 0.0 | 8.0 | 0.00 | 0.00 | 0.00 | 83 | 1003.9 |
| 20260509144539 | 12 | 0 | 0.0 | 16.1 | 0.00 | 0.00 | 0.00 | 84 | 1004.1 |